Location: Rotheul
(50.2849°N, 11.2349°E)
Time: 15:59:15
(UTC+02:00)

ISS - Pass Details

Date: 20 May 2018
Orbit: 402 x 407 km, 51.6° (Epoch: 23 May)

Event Time Altitude Azimuth Distance (km) Brightness Sun altitude
Exits shadow 01:38:49 21° 276° (W) 968 -2.0 -19.5°
Maximum altitude 01:40:50 68° 355° (N) 438 -3.6 -19.5°
Drops below altitude 10° 01:44:06 10° 80° (E) 1,458 -0.8 -19.4°
Sets 01:46:11 0° 83° (E) 2,318 0.2 -19.4°
